Tracking 22836 objects as of 18-Apr-2021
HD Live streaming from Space Station
objects crossing your sky now

DELTA 1 DEB

Track DELTA 1 DEB now!
10-day predictions


NORAD ID: 7174
Int'l Code: 1973-086EL
Perigee: 1,407.5 km
Apogee: 1,897.2 km
Inclination: 102.1 °
Period: 119.2 minutes
Semi major axis: 8023 km
RCS: 0.017 m2 (small)
Launch date: November 6, 1973
Source: United States (US)
Launch site: AIR FORCE WESTERN TEST RANGE (AFWTR)

Note: This is SATELLITE DEBRIS
aabbcc
Your satellite tracking list
Your tracking list is empty




NASA's NSSDC Master Catalog

Two Line Element Set (TLE):
1 07174U 73086EL  21107.33880791  .00000126  00000-0  16377-2 0  9998
2 07174 102.0867 249.7903 0305137 212.3109 174.2668 12.08009932103468
Source of the keplerian elements: AFSPC